Aérodrome :
LOGIN :

S'inscrire | Disclaimer

   EN    FR    IT 

 










Légende :    VFR   VFR Marginal   IFR   IFR Intensif   IFR Très Intensif
Visi : 
Plafond : 
>= 8 km
>= 3000ft
5 à 8 km
1000 à 3000 ft
1500m à 5 km
500 à 1000 ft
800 à 1500m
200 à 500 ft
< 800m
< 200 ft
Symboles :   Orages  Brouillard  Fortes neiges  Fortes précipitations  Vent > 20 kt
SIGMETs :   Divers  Orages  Givrage  Turbulence  Onde Orograph.  Cendres Volcan.







- Altitude de l'aérodrome : 44 ft
- Code IATA : SOU
- Voir les cartes d'approche


EGHI - Southampton

DERNIER METAR :
  • 220820Z VRB01KT CAVOK 15/04 Q1021

METARs EXPIRÉS :
  • 220750Z VRB02KT CAVOK 13/05 Q1021
  • 220720Z VRB01KT CAVOK 12/04 Q1020
  • 220650Z VRB01KT CAVOK 11/05 Q1020
  • 220620Z 04001KT CAVOK 08/05 Q1020
  • 220550Z VRB01KT CAVOK 08/05 Q1020

TAF TAF EGHI
Valide du 22 à 06h jusqu'au 22 à 15h UTC


220524Z 2206/2215 02004KT 9999 FEW045
BECMG 2209/2212 20010KT
ATIS : +44 23 8062 7103
Pas de NOTAMs connus pour ce terrain.



MET'MAP, la Météo Aéronautique d'un coup d'oeil ! - Copyright ORBIFLY Décembre 2007 - Disclaimer

ORBIFLY MET'MAP TEAM :

Programmation & Développement : Alexandra Zaïnal
Conception & Développement : Baudouin d'Aumeries
Co-Programmation & Développement : Marc-Olivier Méhu
Soutien technique & logistique : Manuel Goepfert

Contact : metmap@orbifly.com




SOURCES & CREDITS :

   NOAA